TimeEDT,TemperatureF,Dew PointF,Humidity,Sea Level PressureIn,VisibilityMPH,Wind Direction,Wind SpeedMPH,Gust SpeedMPH,PrecipitationIn,Events,Conditions,WindDirDegrees,DateUTC
12:55 AM,46.4,37.4,71,29.84,10.0,West,8.1,-,N/A,,Overcast,270,2012-10-11 04:55:00
1:15 AM,46.4,37.4,71,29.84,10.0,West,10.4,16.1,N/A,,Overcast,280,2012-10-11 05:15:00
1:35 AM,46.4,35.6,66,29.84,10.0,WNW,6.9,-,N/A,,Overcast,290,2012-10-11 05:35:00
1:55 AM,46.4,35.6,66,29.84,10.0,West,9.2,17.3,N/A,,Overcast,280,2012-10-11 05:55:00
2:35 AM,44.6,37.4,76,29.85,10.0,West,10.4,-,N/A,,Overcast,280,2012-10-11 06:35:00
2:55 AM,44.6,37.4,76,29.86,10.0,WSW,10.4,-,N/A,,Overcast,250,2012-10-11 06:55:00
3:15 AM,44.6,37.4,76,29.87,10.0,WSW,10.4,16.1,N/A,,Overcast,250,2012-10-11 07:15:00
4:15 AM,42.8,35.6,76,29.89,10.0,Calm,Calm,-,N/A,,Overcast,0,2012-10-11 08:15:00
4:35 AM,42.8,33.8,70,29.91,10.0,West,6.9,-,N/A,,Overcast,260,2012-10-11 08:35:00
4:55 AM,42.8,35.6,76,29.91,10.0,WSW,6.9,-,N/A,,Overcast,250,2012-10-11 08:55:00
5:15 AM,42.8,35.6,76,29.92,10.0,West,6.9,-,N/A,,Overcast,270,2012-10-11 09:15:00
5:55 AM,42.8,33.8,70,29.94,10.0,West,9.2,16.1,N/A,,Overcast,260,2012-10-11 09:55:00
6:15 AM,42.8,33.8,70,29.95,10.0,WSW,9.2,-,N/A,,Overcast,250,2012-10-11 10:15:00
6:35 AM,42.8,33.8,70,29.96,10.0,West,12.7,24.2,N/A,,Overcast,280,2012-10-11 10:35:00
6:55 AM,42.8,33.8,70,29.97,10.0,WNW,8.1,-,N/A,,Overcast,290,2012-10-11 10:55:00
7:15 AM,42.8,33.8,70,29.98,10.0,West,8.1,-,N/A,,Overcast,260,2012-10-11 11:15:00
7:35 AM,41.0,33.8,76,29.99,10.0,West,10.4,17.3,N/A,,Scattered Clouds,270,2012-10-11 11:35:00
7:55 AM,41.0,33.8,76,30.00,10.0,West,10.4,17.3,N/A,,Clear,280,2012-10-11 11:55:00
8:35 AM,42.8,33.8,70,30.02,10.0,WNW,15.0,19.6,N/A,,Clear,290,2012-10-11 12:35:00
8:55 AM,42.8,33.8,70,30.02,10.0,West,12.7,17.3,N/A,,Clear,280,2012-10-11 12:55:00
9:15 AM,44.6,32.0,61,30.03,10.0,West,10.4,17.3,N/A,,Clear,280,2012-10-11 13:15:00
9:35 AM,44.6,32.0,61,30.05,10.0,West,10.4,20.7,N/A,,Clear,280,2012-10-11 13:35:00
9:55 AM,44.6,32.0,61,30.06,10.0,West,16.1,21.9,N/A,,Partly Cloudy,260,2012-10-11 13:55:00
10:35 AM,44.6,30.2,57,30.09,10.0,WNW,12.7,20.7,N/A,,Mostly Cloudy,290,2012-10-11 14:35:00
10:55 AM,44.6,32.0,61,30.08,10.0,West,6.9,-,N/A,,Overcast,270,2012-10-11 14:55:00
11:55 AM,46.4,32.0,57,30.08,10.0,West,5.8,-,N/A,,Overcast,260,2012-10-11 15:55:00
12:15 PM,46.4,32.0,57,30.08,10.0,WSW,12.7,18.4,N/A,,Overcast,250,2012-10-11 16:15:00
12:35 PM,48.2,33.8,58,30.08,10.0,WNW,9.2,19.6,N/A,,Overcast,290,2012-10-11 16:35:00
12:55 PM,48.2,30.2,50,30.07,10.0,West,10.4,25.3,N/A,,Mostly Cloudy,270,2012-10-11 16:55:00
1:15 PM,48.2,28.4,46,30.07,10.0,West,15.0,23.0,N/A,,Mostly Cloudy,280,2012-10-11 17:15:00
1:55 PM,50.0,30.2,47,30.06,10.0,WSW,19.6,32.2,N/A,,Overcast,240,2012-10-11 17:55:00
2:35 PM,50.0,30.2,47,30.06,10.0,West,10.4,19.6,N/A,,Mostly Cloudy,280,2012-10-11 18:35:00
2:55 PM,48.2,28.4,46,30.07,10.0,WNW,12.7,19.6,N/A,,Scattered Clouds,300,2012-10-11 18:55:00
3:15 PM,48.2,30.2,50,30.07,10.0,West,9.2,-,N/A,,Scattered Clouds,280,2012-10-11 19:15:00
3:35 PM,50.0,32.0,50,30.07,10.0,West,9.2,-,N/A,,Scattered Clouds,270,2012-10-11 19:35:00
3:55 PM,50.0,33.8,54,30.07,10.0,West,4.6,-,N/A,,Overcast,270,2012-10-11 19:55:00
4:55 PM,50.0,30.2,47,30.07,10.0,WSW,12.7,18.4,N/A,,Overcast,250,2012-10-11 20:55:00
5:15 PM,48.2,30.2,50,30.08,10.0,West,9.2,-,N/A,,Overcast,270,2012-10-11 21:15:00
6:35 PM,46.4,32.0,57,30.07,10.0,Calm,Calm,-,N/A,,Overcast,0,2012-10-11 22:35:00
6:55 PM,46.4,32.0,57,30.07,10.0,Calm,Calm,-,N/A,,Overcast,0,2012-10-11 22:55:00
7:35 PM,44.6,37.4,76,30.07,10.0,Calm,Calm,-,N/A,,Overcast,0,2012-10-11 23:35:00
7:55 PM,44.6,37.4,76,30.07,10.0,SE,4.6,-,N/A,,Overcast,130,2012-10-11 23:55:00
8:15 PM,44.6,35.6,71,30.06,10.0,SSE,4.6,-,N/A,,Overcast,150,2012-10-12 00:15:00
8:35 PM,44.6,35.6,71,30.06,10.0,SE,6.9,-,N/A,,Overcast,130,2012-10-12 00:35:00
8:55 PM,44.6,35.6,71,30.05,10.0,ESE,6.9,-,N/A,,Overcast,120,2012-10-12 00:55:00
9:35 PM,44.6,35.6,71,30.06,10.0,SE,4.6,-,N/A,,Overcast,130,2012-10-12 01:35:00
9:55 PM,44.6,33.8,66,30.06,10.0,SE,6.9,-,N/A,,Overcast,130,2012-10-12 01:55:00
10:15 PM,44.6,33.8,66,30.06,10.0,SE,6.9,-,N/A,,Overcast,130,2012-10-12 02:15:00
10:35 PM,44.6,33.8,66,30.05,10.0,SSE,3.5,-,N/A,,Overcast,150,2012-10-12 02:35:00
10:55 PM,42.8,33.8,70,30.04,10.0,SE,5.8,-,N/A,,Overcast,130,2012-10-12 02:55:00
11:15 PM,42.8,33.8,70,30.04,10.0,SE,5.8,-,N/A,,Overcast,130,2012-10-12 03:15:00